Location: Hopville
(44.8032°N, 123.1329°W)
Time: 04:02:46
(UTC+00:00)

Cosmos 2084 Rocket - Pass Details

Date: 24 January 2021
Orbit: 532 x 648 km, 62.8° (Epoch: 26 February)

Event Time Altitude Azimuth Distance (km) Brightness Sun altitude
Exits shadow 13:51:50 24° 336° (NNW) 1,244 4.8 -19.0°
Maximum altitude 13:54:18 59° 48° (NE) 705 4.0 -18.6°
Drops below altitude 10° 13:58:46 10° 129° (SE) 1,989 7.1 -17.8°
Sets 14:01:06 0° 133° (SE) 2,908 8.0 -17.4°
